Stations météo

Publicité
Berus, Allemagne (10704): Température de l'air & dewpoint: 19.06.2018 15:00:00 - 25.06.2018 15:00:00 (CEST)Berus, Allemagne (10704): Température de l'air 5cm & Température de l'air -5cm: 19.06.2018 15:00:00 - 25.06.2018 15:00:00 (CEST)Berus, Allemagne (10704): Température de l'air -20cm & Température de l'air -100cm: 19.06.2018 15:00:00 - 25.06.2018 15:00:00 (CEST)Berus, Allemagne (10704): Vitesse du vent & gusts: 19.06.2018 15:00:00 - 25.06.2018 15:00:00 (CEST)Berus, Allemagne (10704): Direction du vent: 19.06.2018 15:00:00 - 25.06.2018 15:00:00 (CEST)Berus, Allemagne (10704): reduced air pressure: 19.06.2018 15:00:00 - 25.06.2018 15:00:00 (CEST)Berus, Allemagne (10704): visibility: 19.06.2018 15:00:00 - 25.06.2018 15:00:00 (CEST)Berus, Allemagne (10704): Ensoleillement: 19.06.2018 15:00:00 - 25.06.2018 15:00:00 (CEST)Berus, Allemagne (10704): Quantités de précipitations: 19.06.2018 15:00:00 - 25.06.2018 15:00:00 (CEST)
Date & Time tt [°C] td [°C] tt 5cm [°C] tt -5cm [°C] tt -20cm [°C] tt -100cm [°C] ff [km/h] ff [knt] fx [km/h] fx [knt] dd ppp [hPa] vv [km] sd [min] rr [mm]
25.06.2018 15:00:00 18,7 10,4 25,5 24,6 20,8 18,2 11 6 23 13 NNE 1023,3 19 11 0,0
25.06.2018 14:00:00 18,1 9,5 26,9 23,4 20,5 18,2 6 4 21 12 N 1023,5 19 13 0,0
25.06.2018 13:00:00 17,0 10,1 23,0 22,5 20,3 18,2 11 6 24 13 NNE 1023,7 18 7 0,0
25.06.2018 12:00:00 16,6 10,2 23,6 21,4 20,1 18,2 14 8 24 13 NE 1023,9 15 11 0,0
25.06.2018 11:00:00 15,7 10,1 20,4 20,3 20,1 18,2 12 6 24 13 NNE 1023,8 17 7 0,0
25.06.2018 10:00:00 14,3 10,4 15,7 19,1 20,1 18,2 13 7 20 11 N 1023,6 15 0 0,0
25.06.2018 09:00:00 14,1 10,6 15,5 18,8 20,2 18,2 11 6 21 11 NNE 1023,3 17 34 0,0
25.06.2018 08:00:00 14,5 11,0 15,1 17,8 20,4 18,2 10 6 17 9 N 1022,9 14 25 0,0
25.06.2018 07:00:00 13,3 10,1 13,3 18,1 20,7 18,2 14 8 23 13 NNE 1022,7 18 0 0,0
25.06.2018 06:00:00 13,2 10,2 13,1 18,4 20,9 18,2 8 5 14 8 N 1022,3 21 0 0,0
25.06.2018 05:00:00 13,4 10,0 13,4 18,7 21,2 18,2 13 7 21 11 NNE 1022,3 22 0 0,0
25.06.2018 04:00:00 13,6 9,7 13,5 19,1 21,4 18,2 11 6 18 10 NNE 1022,1 25 0 0,0
25.06.2018 03:00:00 13,9 9,6 13,8 19,4 21,8 18,2 9 5 16 9 NNE 1022,1 26 0 0,0
25.06.2018 02:00:00 14,1 9,3 14,1 19,8 22,1 18,2 11 6 20 11 NNE 1022,1 27 0 0,0
25.06.2018 01:00:00 14,4 8,9 14,3 20,3 22,5 18,2 14 8 22 12 N 1022,1 28 0 0,0
25.06.2018 00:00:00 14,6 8,9 14,1 21,1 22,8 18,2 15 8 24 13 NNE 1022,0 29 0 0,0
24.06.2018 23:00:00 15,1 9,2 14,1 22,4 23,1 18,2 14 8 24 13 NNE 1021,7 27 0 0,0
24.06.2018 22:00:00 16,0 9,0 15,0 23,9 23,4 18,2 14 8 25 13 NNE 1021,1 27 0 0,0
24.06.2018 21:00:00 17,4 9,0 17,2 25,5 23,4 18,2 10 6 21 12 NNE 1020,6 23 0 0,0
24.06.2018 20:00:00 18,3 8,7 19,1 27,0 23,3 18,2 12 7 19 11 N 1020,4 27 0 0,0
24.06.2018 19:00:00 18,7 8,6 20,4 28,3 23,1 18,2 11 6 21 12 N 1020,3 31 38 0,0
24.06.2018 18:00:00 19,4 8,0 23,4 28,9 22,6 18,2 11 6 23 12 N 1020,4 30 60 0,0
24.06.2018 17:00:00 19,6 8,4 24,2 28,8 22,1 18,2 12 7 23 13 N 1020,5 20 53 0,0
24.06.2018 16:00:00 19,3 8,7 24,3 28,6 21,5 18,2 7 4 16 9 NNW 1020,7 21 33 0,0
24.06.2018 15:00:00 19,6 9,2 26,9 27,4 21,0 18,2 7 4 16 9 NW 1021,1 22 31 0,0
24.06.2018 14:00:00 18,8 7,8 26,9 25,8 20,5 18,2 7 4 19 10 NNW 1021,4 16 22 0,0
24.06.2018 13:00:00 18,0 9,5 22,7 24,3 20,0 18,2 7 4 14 8 NNW 1021,8 24 26 0,0
24.06.2018 12:00:00 17,0 8,0 23,0 22,9 19,6 18,2 6 3 13 7 NNE 1022,2 17 8 0,0
24.06.2018 11:00:00 16,6 9,1 19,3 21,9 19,3 18,2 5 3 13 7 NNE 1022,2 20 35 0,0
24.06.2018 10:00:00 16,5 9,3 20,0 19,3 19,2 18,2 5 3 16 8 NNW 1022,4 15 60 0,0
24.06.2018 09:00:00 14,4 10,3 16,5 17,1 19,3 18,2 4 2 8 4 WNW 1022,8 19 12 0,0
24.06.2018 08:00:00 12,1 10,1 13,0 16,4 19,5 18,2 0 0 5 3 N 1023,0 17 3 0,0
24.06.2018 07:00:00 11,7 8,5 11,6 16,2 19,8 18,2 3 2 8 4 N 1023,1 20 0 0,0
24.06.2018 06:00:00 11,3 8,3 10,2 16,3 20,1 18,2 5 3 9 5 NNE 1023,1 17 0 0,0
24.06.2018 05:00:00 10,8 8,2 9,1 16,6 20,4 18,2 6 3 10 5 N 1023,3 23 0 0,0
24.06.2018 04:00:00 10,9 8,1 8,6 17,0 20,8 18,3 6 3 7 4 NE 1023,9 23 0 0,0
24.06.2018 03:00:00 10,6 8,0 8,2 17,6 21,2 18,3 6 3 7 4 NE 1024,3 21 0 0,0
24.06.2018 02:00:00 10,6 7,9 8,7 18,3 21,6 18,3 6 3 8 4 NNE 1024,7 22 0 0,0
24.06.2018 01:00:00 10,7 8,1 9,1 19,1 22,0 18,3 5 3 8 4 NNE 1025,1 15 0 0,0
24.06.2018 00:00:00 11,1 7,9 9,2 20,0 22,4 18,3 5 3 11 6 NNE 1025,4 25 0 0,0
23.06.2018 23:00:00 11,9 7,7 9,9 21,3 22,8 18,3 8 4 16 9 NNE 1025,6 26 0 0,0
23.06.2018 22:00:00 12,6 7,4 11,1 23,0 23,1 18,3 11 6 27 14 N 1025,4 31 0 0,0
23.06.2018 21:00:00 14,7 7,5 14,4 24,8 23,2 18,3 16 9 26 14 N 1025,0 34 21 0,0
23.06.2018 20:00:00 15,5 8,2 18,4 26,3 23,2 18,3 18 10 30 16 N 1024,7 24 50 0,0
23.06.2018 19:00:00 16,3 8,5 18,6 27,6 23,0 18,3 16 9 30 16 N 1024,7 29 1 0,0
23.06.2018 18:00:00 17,2 8,3 20,2 29,4 22,5 18,3 16 9 32 17 N 1024,9 29 25 0,0
23.06.2018 17:00:00 18,1 6,8 22,9 30,0 21,9 18,3 16 9 36 20 N 1024,7 18 44 0,0
23.06.2018 16:00:00 18,2 8,1 22,6 29,7 21,1 18,3 16 9 30 16 N 1025,0 25 48 0,0
23.06.2018 15:00:00 17,5 8,0 21,9 28,8 20,3 18,3 10 6 21 11 N 1025,5 27 45 0,0
23.06.2018 14:00:00 16,9 5,5 23,3 27,4 19,5 18,3 9 5 20 11 NE 1026,0 20 59 0,0
23.06.2018 13:00:00 15,7 4,9 23,5 24,9 18,8 18,3 12 7 21 11 NNE 1026,6 20 60 0,0
23.06.2018 12:00:00 14,6 6,2 20,5 21,9 18,3 18,3 10 6 20 11 NNE 1027,2 20 60 0,0
23.06.2018 11:00:00 13,5 6,4 17,9 18,9 18,1 18,3 11 6 23 12 NNE 1027,4 22 38 0,0
23.06.2018 10:00:00 12,6 6,5 18,0 16,7 18,0 18,3 13 7 22 12 NNE 1027,8 12 40 0,0
23.06.2018 09:00:00 11,6 6,9 13,2 15,3 18,1 18,3 9 5 17 9 NNE 1027,8 13 56 0,0
23.06.2018 08:00:00 10,7 6,2 11,0 13,9 18,4 18,3 8 4 12 6 NE 1027,9 11 60 0,0
23.06.2018 07:00:00 9,4 7,1 7,8 13,7 18,7 18,3 6 4 9 5 NNE 1027,9 10 41 0,0
23.06.2018 06:00:00 8,1 6,5 5,9 14,0 19,0 18,3 7 4 11 6 NNE 1028,0 12 0 0,0
23.06.2018 05:00:00 8,4 6,5 6,6 14,5 19,4 18,3 9 5 20 11 N 1027,6 15 0 0,0
23.06.2018 04:00:00 8,8 6,6 7,4 15,0 19,8 18,3 11 6 16 9 NNW 1027,5 16 0 0,0
23.06.2018 03:00:00 9,4 6,6 8,0 15,6 20,1 18,3 11 6 21 11 N 1027,6 20 0 0,0
23.06.2018 02:00:00 9,6 6,5 8,0 16,3 20,5 18,3 12 6 22 12 N 1027,6 23 0 0,0
23.06.2018 01:00:00 10,2 6,5 8,6 17,1 20,9 18,2 12 7 25 13 N 1027,9 22 0 0,0
23.06.2018 00:00:00 10,8 6,2 9,4 18,0 21,3 18,2 16 9 25 14 N 1027,8 23 0 0,0
22.06.2018 23:00:00 11,2 6,1 9,7 19,2 21,6 18,2 16 8 27 14 N 1027,5 20 0 0,0
22.06.2018 22:00:00 11,8 6,3 10,3 20,7 21,8 18,2 14 7 24 13 N 1027,1 22 11 0,0
22.06.2018 21:00:00 13,2 6,2 12,4 22,3 21,9 18,2 10 6 22 12 N 1026,8 21 57 0,0
22.06.2018 20:00:00 14,2 6,1 14,4 23,5 21,8 18,2 12 6 24 13 N 1026,5 26 15 0,0
22.06.2018 19:00:00 15,4 5,8 17,7 24,1 21,6 18,2 17 9 32 17 N 1026,3 20 34 0,0
22.06.2018 18:00:00 15,4 5,9 18,1 23,9 21,5 18,2 18 10 31 17 N 1026,1 22 13 0,0
22.06.2018 17:00:00 15,4 5,0 17,5 23,8 21,3 18,2 19 10 30 16 N 1026,0 26 1 0,0
22.06.2018 16:00:00 16,0 6,4 19,8 24,1 20,9 18,2 14 8 31 17 N 1025,8 22 0 0,0
22.06.2018 15:00:00 15,7 5,2 19,6 24,1 20,6 18,1 6 4 30 16 NW 1025,8 25 18 0,0
22.06.2018 14:00:00 15,7 6,1 21,7 22,6 20,3 18,1 10 5 27 14 NW 1026,2 31 15 0,0
22.06.2018 13:00:00 14,0 5,7 15,5 21,7 20,0 18,1 11 6 29 15 NNW 1026,6 25 7 0,0
22.06.2018 12:00:00 13,8 5,0 17,7 20,4 19,8 18,1 13 7 26 14 NW 1026,7 33 24 0,0
22.06.2018 11:00:00 12,3 6,1 14,7 19,2 19,7 18,1 9 5 23 12 NNW 1027,0 27 12 0,0
22.06.2018 10:00:00 11,2 6,1 13,4 18,0 19,7 18,1 13 7 25 13 NNW 1027,3 23 27 0,0
22.06.2018 09:00:00 10,8 6,0 12,9 16,3 19,9 18,1 11 6 21 11 WNW 1027,0 12 60 0,0
22.06.2018 08:00:00 9,3 5,3 9,9 15,0 20,2 18,1 9 5 18 10 W 1027,2 13 60 0,0
22.06.2018 07:00:00 7,6 4,9 7,2 14,9 20,7 18,1 11 6 21 11 WNW 1027,0 17 45 0,0
22.06.2018 06:00:00 7,2 4,5 6,2 15,3 21,2 18,0 15 8 23 12 NNW 1026,8 19 0 0,0
22.06.2018 05:00:00 7,4 4,7 6,3 16,0 21,7 18,0 12 7 19 10 NW 1026,5 18 0 0,0
22.06.2018 04:00:00 7,2 4,7 5,8 16,7 22,2 18,0 12 7 30 16 NNW 1026,6 17 0 0,0
22.06.2018 03:00:00 7,8 4,9 6,7 17,5 22,7 18,0 13 7 24 13 NNW 1026,5 18 0 0,0
22.06.2018 02:00:00 8,4 4,8 7,4 18,5 23,3 18,0 16 9 24 13 NNW 1026,3 22 0 0,0
22.06.2018 01:00:00 9,5 4,0 8,2 19,5 23,9 18,0 15 8 26 14 NNW 1025,8 25 0 0,0
22.06.2018 00:00:00 10,3 3,1 9,1 20,8 24,4 18,0 17 9 28 15 N 1025,3 26 0 0,0
21.06.2018 23:00:00 11,1 3,7 9,8 22,5 24,9 18,0 16 9 36 20 N 1024,7 25 0 0,0
21.06.2018 22:00:00 12,7 3,7 11,5 24,4 25,3 17,9 20 11 37 20 N 1023,5 26 12 0,0
21.06.2018 21:00:00 14,4 4,5 13,7 26,7 25,5 17,9 20 11 41 22 NNW 1022,4 23 60 0,0
21.06.2018 20:00:00 16,3 4,4 18,2 28,8 25,5 17,9 22 12 36 20 NNW 1021,4 14 60 0,0
21.06.2018 19:00:00 17,7 4,5 21,4 30,2 25,3 17,9 22 12 38 21 N 1020,6 13 60 0,0
21.06.2018 18:00:00 18,5 4,6 23,2 31,1 24,9 17,9 21 11 35 19 N 1020,0 14 60 0,0
21.06.2018 17:00:00 19,3 8,0 24,7 31,0 24,4 17,9 19 11 37 20 NNW 1019,4 16 60 0,0
21.06.2018 16:00:00 19,8 8,8 25,4 30,0 24,0 17,8 13 7 35 19 NW 1018,9 27 47 0,0
21.06.2018 15:00:00 19,2 11,2 22,0 28,9 23,7 17,8 16 9 34 18 NW 1018,7 21 28 0,0
21.06.2018 14:00:00 18,4 12,0 21,6 28,6 23,3 17,8 14 8 36 19 NW 1018,7 32 20 0,0
21.06.2018 13:00:00 19,3 13,7 23,1 28,2 22,8 17,8 14 8 39 21 NW 1018,2 34 34 0,0
21.06.2018 12:00:00 21,2 14,0 25,7 26,6 22,5 17,8 23 12 42 23 W 1017,8 25 41 0,0
21.06.2018 11:00:00 21,0 13,7 24,2 25,3 22,2 17,8 25 14 38 21 W 1017,1 20 60 0,0
21.06.2018 10:00:00 20,1 13,4 22,2 23,1 22,1 17,8 21 11 32 17 WSW 1017,0 17 60 0,0
21.06.2018 09:00:00 19,7 14,1 21,0 21,2 22,3 17,8 16 9 27 15 W 1017,1 13 56 0,0
21.06.2018 08:00:00 18,7 14,8 18,9 20,1 22,6 17,8 10 5 18 10 W 1017,1 19 60 0,0
21.06.2018 07:00:00 17,7 14,2 16,5 20,0 23,0 17,8 10 5 16 9 WNW 1017,2 20 40 0,0
21.06.2018 06:00:00 17,7 13,8 15,9 20,5 23,4 17,8 13 7 22 12 NW 1017,1 20 0 0,0
21.06.2018 05:00:00 16,7 13,8 15,4 21,3 23,7 17,8 13 7 29 16 WNW 1017,7 26 0 0,0
21.06.2018 04:00:00 17,5 14,4 16,3 22,0 24,2 17,8 14 8 24 13 NW 1017,6 35 0 0,0
21.06.2018 03:00:00 18,6 14,3 17,5 22,8 24,6 17,8 14 8 27 15 WNW 1017,6 38 0 0,0
21.06.2018 02:00:00 20,1 14,2 18,8 23,6 25,0 17,8 14 7 26 14 WNW 1017,6 44 0 0,0
21.06.2018 01:00:00 21,2 13,2 19,8 24,6 25,4 17,8 14 7 25 13 NW 1017,6 42 0 0,0
21.06.2018 00:00:00 22,0 13,1 20,3 25,8 25,9 17,8 14 7 25 13 NW 1018,0 41 0 0,0
20.06.2018 23:00:00 23,0 14,7 21,2 27,3 26,2 17,8 13 7 19 11 WNW 1018,0 35 0 0,0
20.06.2018 22:00:00 23,5 14,2 20,1 29,2 26,4 17,7 6 3 10 5 NW 1017,6 26 12 0,0
20.06.2018 21:00:00 24,6 13,9 22,4 31,4 26,4 17,7 6 4 10 5 NW 1017,4 39 60 0,0
20.06.2018 20:00:00 26,1 14,2 30,4 33,3 26,2 17,7 7 4 13 7 NNW 1017,5 35 60 0,0
20.06.2018 19:00:00 27,3 14,8 31,0 34,6 25,7 17,7 7 4 14 8 W 1017,6 35 60 0,0
20.06.2018 18:00:00 27,2 15,6 32,2 35,3 25,1 17,7 7 4 14 8 WSW 1017,9 32 59 0,0
20.06.2018 17:00:00 27,0 15,3 30,8 35,5 24,2 17,7 10 5 15 8 W 1018,5 27 60 0,0
20.06.2018 16:00:00 27,4 16,0 34,4 34,9 23,3 17,7 5 3 14 7 NW 1018,7 36 60 0,0
20.06.2018 15:00:00 26,2 14,5 33,2 33,6 22,3 17,7 9 5 16 8 WSW 1019,3 27 60 0,0
20.06.2018 14:00:00 25,8 16,4 32,5 31,7 21,4 17,7 7 4 18 10 SW 1020,0 22 60 0,0
20.06.2018 13:00:00 25,0 16,1 30,2 29,2 20,5 17,7 8 4 13 7 WSW 1020,6 24 60 0,0
20.06.2018 12:00:00 24,0 15,5 29,2 26,3 19,9 17,7 3 2 14 7 SSE 1021,1 38 60 0,0
20.06.2018 11:00:00 22,5 14,5 27,5 23,4 19,5 17,7 6 3 14 8 E 1021,5 30 60 0,0
20.06.2018 10:00:00 21,3 16,0 23,7 20,6 19,3 17,7 8 5 16 9 NE 1021,8 18 60 0,0
20.06.2018 09:00:00 18,4 14,8 20,1 18,6 19,4 17,7 10 5 16 9 NE 1022,4 15 60 0,0
20.06.2018 08:00:00 17,1 14,4 16,2 17,3 19,6 17,7 14 7 18 10 NE 1022,6 16 59 0,0
20.06.2018 07:00:00 15,6 14,5 14,6 17,0 19,8 17,7 13 7 16 9 NNE 1022,8 17 44 0,0
20.06.2018 06:00:00 14,8 14,2 13,6 17,3 20,1 17,7 12 6 16 9 NNE 1023,1 8 0 0,0
20.06.2018 05:00:00 15,2 14,4 13,9 17,7 20,3 17,7 13 7 15 8 NNE 1023,2 16 0 0,0
20.06.2018 04:00:00 15,4 14,5 14,1 18,1 20,6 17,7 11 6 13 7 NNE 1023,5 13 0 0,0
20.06.2018 03:00:00 16,0 14,7 14,3 18,6 20,9 17,7 10 5 12 7 NNE 1023,7 14 0 0,0
20.06.2018 02:00:00 16,6 15,0 14,7 19,1 21,2 17,7 10 5 13 7 N 1023,9 22 0 0,0
20.06.2018 01:00:00 16,8 14,6 14,6 19,8 21,5 17,7 7 4 16 9 N 1024,1 26 0 0,0
20.06.2018 00:00:00 17,7 14,9 16,4 20,6 21,8 17,7 13 7 19 11 NNW 1024,0 26 0 0,0
19.06.2018 23:00:00 18,1 15,0 16,6 21,6 22,1 17,7 10 5 17 9 NW 1024,0 19 0 0,0
19.06.2018 22:00:00 18,5 14,8 16,9 22,9 22,2 17,7 9 5 14 8 WNW 1023,7 22 0 0,0
19.06.2018 21:00:00 18,9 14,9 18,0 24,4 22,2 17,7 7 4 12 7 NW 1023,8 24 8 0,0
19.06.2018 20:00:00 20,8 15,7 23,3 25,3 22,1 17,7 8 4 13 7 W 1023,7 31 22 0,0
19.06.2018 19:00:00 20,6 15,6 22,7 25,8 21,9 17,7 9 5 17 9 W 1023,9 27 3 0,0
19.06.2018 18:00:00 20,5 15,3 22,8 26,2 21,6 17,7 11 6 16 8 W 1024,2 26 0 0,0
19.06.2018 17:00:00 20,6 15,4 22,7 26,7 21,2 17,7 8 4 13 7 W 1024,5 22 0 0,0
19.06.2018 16:00:00 20,8 15,3 24,3 26,5 20,8 17,7 4 2 14 8 W 1024,4 22 0 0,0
19.06.2018 15:00:00 20,3 14,8 23,4 26,1 20,3 17,7 7 4 16 9 WNW 1024,8 22 8 0,0

tt = Température de l'air
td = dewpoint
tt 5cm = Température de l'air 5cm
tt -5cm = Température de l'air -5cm
tt -20cm = Température de l'air -20cm
tt -100cm = Température de l'air -100cm
ff = Vitesse du vent
fx = gusts
dd = Direction du vent
ppp = reduced air pressure
vv = visibility
sd = Ensoleillement
rr = Quantités de précipitations

stations d'obs. à proximité